Monticello, AR

4:27 AM CDT on April 20, 2018 (GMT -0500)
Monticello Municipal-Ellis

Weather History for KLLQ - February, 2013

Change the Weather History Date:

Wednesday, February 20, 2013

  Actual Average Record
Temperature  
Mean Temperature 39 °F -  
Max Temperature 42 °F 58 °F 84 °F (1986)
Min Temperature 36 °F 34 °F 15 °F (1978)
Degree Days  
Heating Degree Days 26    
Moisture  
Dew Point 25 °F    
Average Humidity 60    
Maximum Humidity 89    
Minimum Humidity 45    
Precipitation  
Precipitation 0.02 in - - ()
Sea Level Pressure  
Sea Level Pressure 30.22 in    
Wind  
Wind Speed 7 mph (ENE)    
Max Wind Speed 15 mph    
Max Gust Speed 23 mph    
Visibility 10 miles    
Events Rain    
Averages and records for this station are not official NWS values.
T = Trace of Precipitation, MM = Missing Value Source: NWS Daily Summary

Daily Weather History Graph

Daily Weather History Graph

Search for Another Location

Airport or City:

Astronomy

Feb. 20, 2013 Rise Set
Actual Time 6:45 AM CST 5:56 PM CST
Civil Twilight 6:20 AM CST 6:21 PM CST
Nautical Twilight 5:51 AM CST 6:50 PM CST
Astronomical Twilight 5:22 AM CST 7:19 PM CST
Moon 1:26 PM CST 2:57 AM CST
Length of Visible Light 12h 01m
Length of Day
11h 10m
Waxing Gibbous, 76% of the Moon is Illuminated
Feb 20
Waxing Gibbous
Feb 25
Full
Mar 4
Last Quarter
Mar 11
New
Mar 19
First Quarter

Hourly Weather History & Observations

Time (CST) Temp. Windchill Dew Point Humidity Pressure Visibility Wind Dir Wind Speed Gust Speed Precip Events Conditions
12:53 AM 36.0 °F - 33.1 °F 89% 30.27 in 10.0 mi Calm Calm - N/A   Clear
1:53 AM 37.9 °F - 34.0 °F 86% 30.27 in 10.0 mi Calm Calm - N/A   Clear
2:53 AM 37.9 °F 35.5 °F 32.0 °F 79% 30.27 in 10.0 mi NE 3.5 mph - N/A   Clear
3:53 AM 39.9 °F 34.5 °F 28.9 °F 65% 30.25 in 10.0 mi NE 8.1 mph - N/A   Clear
4:53 AM 39.9 °F 34.5 °F 28.0 °F 63% 30.25 in 10.0 mi NE 8.1 mph - N/A   Clear
6:53 AM 39.0 °F 32.3 °F 23.0 °F 53% 30.30 in 10.0 mi NE 10.4 mph - N/A   Overcast
7:53 AM 37.0 °F 28.1 °F 25.0 °F 62% 30.27 in 6.0 mi NE 15.0 mph 20.7 mph 0.01 in Rain Rain
8:53 AM 37.9 °F 30.9 °F 25.0 °F 60% 30.29 in 10.0 mi East 10.4 mph - 0.00 in   Mostly Cloudy
9:53 AM 39.0 °F 32.3 °F 21.9 °F 50% 30.30 in 10.0 mi East 10.4 mph - N/A   Scattered Clouds
10:53 AM 39.9 °F 35.8 °F 19.9 °F 45% 30.35 in 10.0 mi SE 5.8 mph - N/A   Overcast
11:53 AM 39.0 °F 31.8 °F 23.0 °F 53% 30.29 in 10.0 mi ENE 11.5 mph - 0.00 in Rain Light Rain
12:53 PM 42.1 °F 34.9 °F 24.1 °F 49% 30.21 in 10.0 mi ENE 13.8 mph 23.0 mph 0.01 in   Overcast
2:53 PM 39.9 °F 34.5 °F 23.0 °F 51% 30.21 in 10.0 mi East 8.1 mph - N/A   Overcast
3:53 PM 41.0 °F 34.7 °F 21.9 °F 47% 30.17 in 10.0 mi East 10.4 mph - N/A   Mostly Cloudy
4:53 PM 39.9 °F 35.1 °F 21.9 °F 49% 30.19 in 10.0 mi ENE 6.9 mph - N/A   Overcast
5:53 PM 39.9 °F 35.8 °F 23.0 °F 51% 30.19 in 10.0 mi NE 5.8 mph - 0.00 in Rain Light Rain
6:53 PM 37.9 °F 30.0 °F 23.0 °F 55% 30.18 in 10.0 mi ENE 12.7 mph 16.1 mph 0.00 in   Overcast
7:53 PM 37.0 °F 29.8 °F 25.0 °F 62% 30.15 in 10.0 mi ENE 10.4 mph 20.7 mph 0.00 in   Overcast
8:53 PM 37.0 °F 30.4 °F 26.1 °F 65% 30.15 in 10.0 mi NE 9.2 mph - 0.00 in   Overcast
9:53 PM 37.0 °F 31.6 °F 25.0 °F 62% 30.14 in 10.0 mi ENE 6.9 mph - N/A   Overcast
10:53 PM 37.0 °F 29.3 °F 27.0 °F 67% 30.11 in 10.0 mi ENE 11.5 mph - 0.00 in Rain Light Rain
11:53 PM 37.0 °F 28.9 °F 27.0 °F 67% 30.11 in 10.0 mi NE 12.7 mph - 0.00 in   Overcast